Location: Days
(41.3591°N, 106.7339°W)
Time: 12:40:00
(UTC+00:00)

RS-15 - Pass Details

Date: 01 July 2022
Orbit: 1881 x 2163 km, 64.8° (Epoch: 13 August)

Event Time Altitude Azimuth Distance (km) Brightness Sun altitude
Rises 06:05:35 0° 325° (NW) 5,697 11.7 -23.8°
Reaches altitude 10° 06:09:09 10° 329° (NNW) 4,691 11.0 -24.0°
Maximum altitude 06:21:29 65° 51° (NE) 2,296 8.4 -24.5°
Enters shadow 06:30:10 22° 127° (SE) 3,677 9.0 -24.9°
